User: anonymous   Login
Location: Unspecified
(0.0000°N, 0.0000°E)
Time: 04:33:20
(UTC+02:00)
Language:

Centaur AC-64 - Orbit

View from above orbital plane
View from above orbital plane
View from above satellite
View from above satellite

Ground track
Ground track

The orbit data is extracted from the following two-line orbital elements,

1 15874U 85055B   15242.05246494  .00001943  00000-0  80651-3 0  9996
2 15874 023.0945 108.0317 6594398 261.3717 343.2605 03.16508525309528
Epoch (UTC): 30 August 2015 01:15:32
Eccentricity: 0.6594398
inclination: 23.0945°
perigee height: 295 km
apogee height: 26138 km
right ascension of ascending node: 108.0317°
argument of perigee: 261.3717°
revolutions per day: 3.16508525
mean anomaly at epoch: 343.2605°
orbit number at epoch: 30952

The dashed part of the orbit path shows where the satellite is in the earth's shadow,  

DLR